Location: Chester
(43.2628°N, 72.5951°W)
Time: 10:49:30
(UTC-05:00)

ISS - Visible Passes

Search period start: 23 January 2018 00:00
Search period end: 02 February 2018 00:00
Orbit: 402 x 407 km, 51.6° (Epoch: 23 January)

Date Brightness Start Highest point End Pass type
(mag) Time Alt. Az. Time Alt. Az. Time Alt. Az.
23 Jan -1.3 18:30:41 10° SSE 18:31:11 12° SSE 18:31:11 12° SSE visible
24 Jan -1.3 19:13:10 10° SW 19:14:09 18° SW 19:14:09 18° SW visible
25 Jan -3.0 18:21:11 10° SSW 18:24:09 33° SE 18:24:20 32° SE visible
26 Jan -2.0 17:29:40 10° S 17:31:59 18° SE 17:34:18 10° E visible
26 Jan -2.3 19:04:56 10° WSW 19:07:07 37° W 19:07:07 37° W visible
27 Jan -3.9 18:12:33 10° SW 18:15:48 77° SE 18:17:07 33° ENE visible
27 Jan -0.2 19:49:46 10° WNW 19:49:47 10° WNW 19:49:47 10° WNW visible
28 Jan -2.4 18:57:01 10° W 18:59:43 32° NW 18:59:43 32° NW visible
29 Jan -3.2 18:04:21 10° WSW 18:07:32 50° NNW 18:09:35 20° NE visible
29 Jan -0.4 19:42:03 10° WNW 19:42:14 11° NW 19:42:14 11° NW visible
30 Jan -2.0 18:49:14 10° WNW 18:51:55 23° NNW 18:52:02 23° N visible
31 Jan -2.4 17:56:25 10° W 17:59:21 30° NNW 18:01:48 13° NE visible
31 Jan -0.6 19:34:09 10° NW 19:34:27 11° NW 19:34:27 11° NW visible
01 Feb -1.9 18:41:25 10° NW 18:43:51 19° N 18:44:11 19° N visible
